| time (UTC) | temp C | wind direction | speed KPH | gust KPH | rain 1hr cm | rain 24hr cm | rain mn cm | humidity % | barometer mb |
| 20260902181506 | 19 | 202 | 1.6 | 11.3 | 0.00 | 0.05 | 0.05 | 77 | 1018.8 |
| 20260902181006 | 19 | 207 | 1.6 | 11.3 | 0.00 | 0.05 | 0.05 | 77 | 1018.8 |
| 20260902180507 | 19 | 208 | 1.6 | 11.3 | 0.00 | 0.05 | 0.05 | 76 | 1018.9 |
| 20260902180007 | 19 | 210 | 3.2 | 11.3 | 0.00 | 0.05 | 0.05 | 76 | 1018.9 |
| 20260902175506 | 19 | 228 | 3.2 | 11.3 | 0.00 | 0.05 | 0.05 | 76 | 1018.9 |
| 20260902175006 | 19 | 248 | 4.8 | 12.9 | 0.00 | 0.05 | 0.05 | 75 | 1018.9 |
| 20260902174507 | 20 | 253 | 4.8 | 16.1 | 0.00 | 0.05 | 0.05 | 75 | 1018.9 |
| 20260902174005 | 20 | 258 | 6.4 | 16.1 | 0.00 | 0.05 | 0.05 | 75 | 1018.9 |
| 20260902173506 | 20 | 249 | 4.8 | 14.5 | 0.00 | 0.05 | 0.05 | 75 | 1019.0 |
| 20260902173006 | 20 | 246 | 4.8 | 12.9 | 0.00 | 0.05 | 0.05 | 75 | 1018.9 |
| 20260902172506 | 20 | 254 | 4.8 | 12.9 | 0.00 | 0.05 | 0.05 | 75 | 1018.8 |
| 20260902172006 | 20 | 247 | 3.2 | 12.9 | 0.00 | 0.05 | 0.05 | 76 | 1018.8 |
| 20260902171506 | 20 | 239 | 3.2 | 12.9 | 0.00 | 0.05 | 0.05 | 76 | 1018.9 |
| 20260902171006 | 20 | 227 | 4.8 | 12.9 | 0.00 | 0.05 | 0.05 | 76 | 1018.8 |
| 20260902170505 | 20 | 213 | 4.8 | 14.5 | 0.00 | 0.05 | 0.05 | 75 | 1018.9 |
| 20260902170005 | 20 | 213 | 6.4 | 16.1 | 0.00 | 0.05 | 0.05 | 75 | 1018.8 |
| 20260902165505 | 20 | 221 | 6.4 | 17.7 | 0.00 | 0.05 | 0.05 | 74 | 1018.9 |
| 20260902165006 | 20 | 225 | 4.8 | 17.7 | 0.00 | 0.05 | 0.05 | 74 | 1018.9 |
| 20260902164506 | 20 | 223 | 4.8 | 12.9 | 0.00 | 0.05 | 0.05 | 74 | 1019.0 |
| 20260902163506 | 20 | 224 | 3.2 | 12.9 | 0.00 | 0.05 | 0.05 | 74 | 1018.9 |
| 20260902163006 | 20 | 225 | 4.8 | 16.1 | 0.00 | 0.05 | 0.05 | 73 | 1019.0 |
| 20260902162006 | 20 | 240 | 6.4 | 16.1 | 0.00 | 0.05 | 0.05 | 72 | 1019.1 |
| 20260902161505 | 20 | 224 | 6.4 | 17.7 | 0.00 | 0.05 | 0.05 | 73 | 1019.1 |
| 20260902161005 | 20 | 227 | 6.4 | 17.7 | 0.00 | 0.05 | 0.05 | 72 | 1019.1 |
| 20260902160007 | 20 | 256 | 8.0 | 22.5 | 0.00 | 0.05 | 0.05 | 75 | 1019.2 |
| 20260902155506 | 20 | 254 | 6.4 | 17.7 | 0.00 | 0.05 | 0.05 | 75 | 1019.3 |
| 20260902155006 | 20 | 252 | 6.4 | 17.7 | 0.00 | 0.05 | 0.05 | 75 | 1019.3 |
| 20260902154506 | 20 | 246 | 6.4 | 17.7 | 0.00 | 0.05 | 0.05 | 76 | 1019.3 |
| 20260902153506 | 20 | 248 | 6.4 | 16.1 | 0.00 | 0.05 | 0.05 | 74 | 1019.4 |
| 20260902153007 | 20 | 238 | 8.0 | 17.7 | 0.00 | 0.05 | 0.05 | 74 | 1019.4 |
| 20260902152505 | 20 | 244 | 9.7 | 17.7 | 0.00 | 0.05 | 0.05 | 73 | 1019.4 |
| 20260902152005 | 20 | 244 | 8.0 | 17.7 | 0.00 | 0.05 | 0.05 | 73 | 1019.4 |
| 20260902151505 | 20 | 231 | 6.4 | 19.3 | 0.00 | 0.05 | 0.05 | 75 | 1019.4 |
| 20260902150505 | 20 | 250 | 9.7 | 24.1 | 0.00 | 0.05 | 0.05 | 74 | 1019.5 |
| 20260902150005 | 20 | 254 | 9.7 | 22.5 | 0.00 | 0.05 | 0.05 | 73 | 1019.4 |
| 20260902145506 | 20 | 251 | 9.7 | 17.7 | 0.00 | 0.05 | 0.05 | 73 | 1019.5 |
| 20260902145006 | 20 | 249 | 11.3 | 22.5 | 0.00 | 0.05 | 0.05 | 72 | 1019.6 |
| 20260902144506 | 20 | 254 | 12.9 | 24.1 | 0.00 | 0.05 | 0.05 | 72 | 1019.6 |
| 20260902144005 | 21 | 258 | 12.9 | 24.1 | 0.00 | 0.05 | 0.05 | 72 | 1019.6 |
| 20260902143506 | 21 | 249 | 12.9 | 24.1 | 0.00 | 0.05 | 0.05 | 70 | 1019.5 |
| 20260902143006 | 21 | 248 | 9.7 | 22.5 | 0.00 | 0.05 | 0.05 | 71 | 1019.5 |
| 20260902142505 | 21 | 253 | 9.7 | 22.5 | 0.00 | 0.05 | 0.05 | 71 | 1019.5 |
| 20260902142007 | 21 | 250 | 11.3 | 24.1 | 0.00 | 0.05 | 0.05 | 69 | 1019.4 |
| 20260902141506 | 21 | 251 | 12.9 | 24.1 | 0.00 | 0.05 | 0.05 | 69 | 1019.5 |
| 20260902141005 | 21 | 255 | 12.9 | 24.1 | 0.00 | 0.05 | 0.05 | 67 | 1019.5 |
| 20260902140506 | 21 | 259 | 9.7 | 20.9 | 0.00 | 0.05 | 0.05 | 68 | 1019.4 |
| 20260902140007 | 21 | 250 | 9.7 | 27.4 | 0.00 | 0.05 | 0.05 | 68 | 1019.4 |
| 20260902135505 | 21 | 250 | 8.0 | 27.4 | 0.00 | 0.05 | 0.05 | 68 | 1019.4 |
| 20260902135005 | 21 | 262 | 8.0 | 19.3 | 0.00 | 0.05 | 0.05 | 69 | 1019.4 |
| 20260902134505 | 22 | 259 | 9.7 | 24.1 | 0.00 | 0.05 | 0.05 | 67 | 1019.5 |
| 20260902134006 | 22 | 250 | 9.7 | 24.1 | 0.00 | 0.05 | 0.05 | 66 | 1019.4 |
| 20260902133506 | 22 | 254 | 11.3 | 22.5 | 0.00 | 0.05 | 0.05 | 67 | 1019.5 |
| 20260902133006 | 22 | 255 | 9.7 | 22.5 | 0.00 | 0.05 | 0.05 | 67 | 1019.5 |
| 20260902132506 | 22 | 251 | 8.0 | 17.7 | 0.00 | 0.05 | 0.05 | 70 | 1019.5 |
| 20260902132006 | 21 | 257 | 8.0 | 22.5 | 0.00 | 0.05 | 0.05 | 71 | 1019.6 |
| 20260902131005 | 21 | 241 | 8.0 | 17.7 | 0.00 | 0.05 | 0.05 | 73 | 1019.5 |
| 20260902130506 | 21 | 248 | 9.7 | 20.9 | 0.00 | 0.05 | 0.05 | 73 | 1019.5 |
| 20260902130006 | 21 | 257 | 11.3 | 20.9 | 0.00 | 0.05 | 0.05 | 71 | 1019.6 |
| 20260902125506 | 21 | 256 | 11.3 | 24.1 | 0.00 | 0.05 | 0.05 | 72 | 1019.5 |
| 20260902125006 | 21 | 251 | 9.7 | 24.1 | 0.00 | 0.05 | 0.05 | 73 | 1019.4 |
| 20260902124506 | 21 | 242 | 8.0 | 17.7 | 0.00 | 0.05 | 0.05 | 73 | 1019.5 |
| 20260902124006 | 21 | 237 | 6.4 | 22.5 | 0.00 | 0.05 | 0.05 | 76 | 1019.5 |
| 20260902123505 | 21 | 222 | 6.4 | 22.5 | 0.00 | 0.05 | 0.05 | 75 | 1019.5 |
| 20260902123005 | 21 | 221 | 8.0 | 17.7 | 0.00 | 0.05 | 0.05 | 76 | 1019.5 |
| 20260902122505 | 20 | 234 | 8.0 | 17.7 | 0.00 | 0.05 | 0.05 | 78 | 1019.5 |
| 20260902121506 | 20 | 253 | 8.0 | 20.9 | 0.00 | 0.05 | 0.05 | 79 | 1019.6 |
| 20260902121006 | 20 | 240 | 8.0 | 19.3 | 0.00 | 0.05 | 0.05 | 79 | 1019.6 |
| 20260902120006 | 20 | 226 | 8.0 | 17.7 | 0.05 | 0.05 | 0.05 | 81 | 1019.6 |
| 20260902115005 | 20 | 240 | 3.2 | 14.5 | 0.05 | 0.05 | 0.05 | 83 | 1019.7 |
| 20260902114506 | 20 | 248 | 4.8 | 14.5 | 0.05 | 0.05 | 0.05 | 84 | 1019.7 |
| 20260902114005 | 19 | 256 | 3.2 | 11.3 | 0.05 | 0.05 | 0.05 | 87 | 1019.7 |
| 20260902113506 | 19 | 256 | 1.6 | 11.3 | 0.05 | 0.05 | 0.05 | 87 | 1019.7 |
| 20260902113006 | 18 | 251 | 3.2 | 11.3 | 0.05 | 0.05 | 0.05 | 88 | 1019.8 |
| 20260902112006 | 18 | 253 | 6.4 | 14.5 | 0.05 | 0.05 | 0.05 | 87 | 1019.9 |
| 20260902111506 | 18 | 253 | 8.0 | 16.1 | 0.05 | 0.05 | 0.05 | 86 | 1019.9 |
| 20260902111005 | 19 | 260 | 8.0 | 16.1 | 0.05 | 0.05 | 0.05 | 84 | 1019.8 |
| 20260902110505 | 20 | 252 | 8.0 | 16.1 | 0.00 | 0.00 | 0.00 | 81 | 1019.9 |
| 20260902110007 | 20 | 241 | 6.4 | 16.1 | 0.00 | 0.00 | 0.00 | 78 | 1019.8 |
| 20260902105506 | 20 | 248 | 4.8 | 16.1 | 0.00 | 0.00 | 0.00 | 77 | 1019.7 |
| 20260902105006 | 20 | 250 | 4.8 | 16.1 | 0.00 | 0.00 | 0.00 | 77 | 1019.8 |
| 20260902104505 | 21 | 259 | 4.8 | 16.1 | 0.00 | 0.00 | 0.00 | 76 | 1019.7 |
| 20260902104005 | 21 | 257 | 6.4 | 17.7 | 0.00 | 0.00 | 0.00 | 75 | 1019.7 |
| 20260902103506 | 21 | 247 | 8.0 | 17.7 | 0.00 | 0.00 | 0.00 | 75 | 1019.6 |
| 20260902103005 | 22 | 240 | 6.4 | 17.7 | 0.00 | 0.00 | 0.00 | 73 | 1019.6 |
| 20260902102507 | 22 | 213 | 4.8 | 16.1 | 0.00 | 0.00 | 0.00 | 75 | 1019.7 |
| 20260902102005 | 22 | 217 | 6.4 | 16.1 | 0.00 | 0.00 | 0.00 | 75 | 1019.7 |
| 20260902101506 | 22 | 234 | 4.8 | 16.1 | 0.00 | 0.00 | 0.00 | 77 | 1019.9 |
| 20260902100505 | 21 | 205 | 6.4 | 14.5 | 0.00 | 0.00 | 0.00 | 81 | 1019.9 |
| 20260902100006 | 20 | 208 | 6.4 | 14.5 | 0.00 | 0.00 | 0.00 | 80 | 1019.8 |
| 20260902095506 | 20 | 212 | 4.8 | 16.1 | 0.00 | 0.00 | 0.00 | 81 | 1019.7 |
| 20260902095006 | 20 | 206 | 3.2 | 16.1 | 0.00 | 0.00 | 0.00 | 82 | 1019.7 |
| 20260902094006 | 20 | 217 | 6.4 | 16.1 | 0.00 | 0.00 | 0.00 | 81 | 1019.7 |
| 20260902093505 | 20 | 230 | 4.8 | 17.7 | 0.00 | 0.00 | 0.00 | 81 | 1019.7 |
| 20260902093006 | 20 | 229 | 4.8 | 17.7 | 0.00 | 0.00 | 0.00 | 81 | 1019.9 |
| 20260902092505 | 20 | 219 | 4.8 | 16.1 | 0.00 | 0.00 | 0.00 | 82 | 1019.8 |
| 20260902092007 | 20 | 213 | 4.8 | 14.5 | 0.00 | 0.00 | 0.00 | 82 | 1019.9 |
| 20260902091005 | 20 | 221 | 6.4 | 19.3 | 0.00 | 0.00 | 0.00 | 83 | 1019.8 |
| 20260902090507 | 20 | 226 | 6.4 | 17.7 | 0.00 | 0.00 | 0.00 | 83 | 1019.9 |
| 20260902090006 | 20 | 232 | 8.0 | 17.7 | 0.00 | 0.00 | 0.00 | 84 | 1019.7 |
| 20260902085505 | 19 | 238 | 8.0 | 17.7 | 0.00 | 0.00 | 0.00 | 84 | 1019.7 |
| 20260902085007 | 19 | 230 | 6.4 | 17.7 | 0.00 | 0.00 | 0.00 | 84 | 1019.7 |
| 20260902084505 | 18 | 217 | 6.4 | 17.7 | 0.00 | 0.00 | 0.00 | 86 | 1019.6 |
| 20260902084006 | 18 | 221 | 4.8 | 14.5 | 0.00 | 0.00 | 0.00 | 85 | 1019.6 |
| 20260902083506 | 18 | 216 | 4.8 | 14.5 | 0.00 | 0.00 | 0.00 | 86 | 1019.5 |
| 20260902083006 | 18 | 210 | 4.8 | 14.5 | 0.00 | 0.00 | 0.00 | 85 | 1019.4 |
| 20260902082006 | 18 | 207 | 3.2 | 16.1 | 0.00 | 0.00 | 0.00 | 86 | 1019.3 |
| 20260902081506 | 18 | 214 | 3.2 | 12.9 | 0.00 | 0.00 | 0.00 | 86 | 1019.2 |
| 20260902081005 | 18 | 211 | 4.8 | 12.9 | 0.00 | 0.00 | 0.00 | 86 | 1019.3 |
| 20260902080507 | 17 | 212 | 4.8 | 16.1 | 0.00 | 0.00 | 0.00 | 86 | 1019.3 |
| 20260902080005 | 17 | 217 | 4.8 | 16.1 | 0.00 | 0.00 | 0.00 | 86 | 1019.3 |
| 20260902075506 | 17 | 219 | 4.8 | 14.5 | 0.00 | 0.00 | 0.00 | 86 | 1019.2 |
| 20260902075005 | 17 | 217 | 4.8 | 16.1 | 0.00 | 0.00 | 0.00 | 87 | 1019.2 |
| 20260902074006 | 17 | 208 | 3.2 | 16.1 | 0.00 | 0.00 | 0.00 | 87 | 1019.2 |
| 20260902073506 | 17 | 201 | 3.2 | 16.1 | 0.00 | 0.00 | 0.00 | 88 | 1019.1 |
| 20260902073005 | 16 | 208 | 1.6 | 12.9 | 0.00 | 0.00 | 0.00 | 88 | 1018.9 |
| 20260902072505 | 16 | 196 | 1.6 | 9.7 | 0.00 | 0.00 | 0.00 | 89 | 1019.0 |
| 20260902072005 | 16 | 190 | 3.2 | 11.3 | 0.00 | 0.00 | 0.00 | 89 | 1019.0 |
| 20260902071505 | 16 | 191 | 3.2 | 11.3 | 0.00 | 0.00 | 0.00 | 89 | 1018.9 |
| 20260902071006 | 16 | 188 | 3.2 | 9.7 | 0.00 | 0.00 | 0.00 | 89 | 1019.0 |
| 20260902070506 | 16 | 192 | 3.2 | 9.7 | 0.00 | 0.00 | 0.00 | 89 | 1018.9 |
| 20260902070007 | 16 | 193 | 3.2 | 12.9 | 0.00 | 0.00 | 0.00 | 89 | 1019.0 |
| 20260902065006 | 16 | 207 | 3.2 | 12.9 | 0.00 | 0.00 | 0.00 | 89 | 1018.9 |
| 20260902064506 | 16 | 211 | 3.2 | 12.9 | 0.00 | 0.00 | 0.00 | 89 | 1018.9 |
| 20260902063505 | 16 | 212 | 4.8 | 16.1 | 0.00 | 0.00 | 0.00 | 89 | 1018.8 |
| 20260902063006 | 16 | 211 | 4.8 | 14.5 | 0.00 | 0.00 | 0.00 | 89 | 1018.9 |
| 20260902062005 | 15 | 274 | 0.0 | 1.6 | 0.00 | 0.00 | 0.00 | 91 | 1018.9 |
| 20260902061506 | 15 | 0 | 0.0 | 0.0 | 0.00 | 0.00 | 0.00 | 91 | 1018.9 |
| 20260902061005 | 15 | 0 | 0.0 | 0.0 | 0.00 | 0.00 | 0.00 | 91 | 1018.9 |
| 20260902060005 | 14 | 0 | 0.0 | 0.0 | 0.00 | 0.00 | 0.00 | 92 | 1018.9 |
| 20260902055506 | 14 | 0 | 0.0 | 0.0 | 0.00 | 0.00 | 0.00 | 92 | 1018.8 |
| 20260902055005 | 14 | 0 | 0.0 | 0.0 | 0.00 | 0.00 | 0.00 | 92 | 1018.8 |
| 20260902054505 | 14 | 0 | 0.0 | 0.0 | 0.00 | 0.00 | 0.00 | 92 | 1018.7 |
| 20260902054006 | 14 | 0 | 0.0 | 0.0 | 0.00 | 0.00 | 0.00 | 92 | 1018.8 |
| 20260902053506 | 14 | 0 | 0.0 | 0.0 | 0.00 | 0.00 | 0.00 | 92 | 1018.7 |
| 20260902053005 | 14 | 0 | 0.0 | 0.0 | 0.00 | 0.00 | 0.00 | 92 | 1018.7 |
| 20260902052505 | 14 | 0 | 0.0 | 0.0 | 0.00 | 0.00 | 0.00 | 91 | 1018.7 |
| 20260902052006 | 14 | 0 | 0.0 | 0.0 | 0.00 | 0.00 | 0.00 | 91 | 1018.7 |
| 20260902051507 | 14 | 0 | 0.0 | 0.0 | 0.00 | 0.00 | 0.00 | 91 | 1018.7 |
| 20260902051006 | 14 | 0 | 0.0 | 0.0 | 0.00 | 0.00 | 0.00 | 91 | 1018.7 |
| 20260902050008 | 14 | 0 | 0.0 | 0.0 | 0.00 | 0.00 | 0.00 | 91 | 1018.6 |
| 20260902045506 | 14 | 163 | 0.0 | 1.6 | 0.00 | 0.00 | 0.00 | 91 | 1018.6 |
| 20260902045005 | 14 | 163 | 0.0 | 1.6 | 0.00 | 0.00 | 0.00 | 91 | 1018.6 |
| 20260902044506 | 14 | 0 | 0.0 | 0.0 | 0.00 | 0.00 | 0.00 | 91 | 1018.6 |
| 20260902043505 | 14 | 0 | 0.0 | 0.0 | 0.00 | 0.00 | 0.00 | 90 | 1018.6 |
| 20260902043006 | 14 | 0 | 0.0 | 0.0 | 0.00 | 0.00 | 0.00 | 90 | 1018.6 |
| 20260902042506 | 14 | 178 | 0.0 | 1.6 | 0.00 | 0.00 | 0.00 | 90 | 1018.6 |
| 20260902042005 | 14 | 178 | 0.0 | 1.6 | 0.00 | 0.00 | 0.00 | 90 | 1018.6 |
| 20260902041506 | 14 | 0 | 0.0 | 0.0 | 0.00 | 0.00 | 0.00 | 90 | 1018.7 |
| 20260902041007 | 14 | 0 | 0.0 | 0.0 | 0.00 | 0.00 | 0.00 | 90 | 1018.6 |
| 20260902040006 | 15 | 0 | 0.0 | 0.0 | 0.00 | 0.00 | 0.00 | 89 | 1018.5 |
| 20260902035006 | 15 | 0 | 0.0 | 0.0 | 0.00 | 0.00 | 0.00 | 89 | 1018.7 |
| 20260902034506 | 15 | 0 | 0.0 | 0.0 | 0.00 | 0.00 | 0.00 | 89 | 1018.7 |
| 20260902034006 | 15 | 0 | 0.0 | 0.0 | 0.00 | 0.00 | 0.00 | 89 | 1018.7 |
| 20260902033006 | 15 | 189 | 0.0 | 1.6 | 0.00 | 0.00 | 0.00 | 89 | 1018.8 |
| 20260902032506 | 15 | 0 | 0.0 | 0.0 | 0.00 | 0.00 | 0.00 | 90 | 1018.9 |
| 20260902031506 | 15 | 0 | 0.0 | 0.0 | 0.00 | 0.00 | 0.00 | 90 | 1018.8 |
| 20260902030506 | 15 | 0 | 0.0 | 0.0 | 0.00 | 0.00 | 0.00 | 89 | 1018.9 |
| 20260902030006 | 15 | 0 | 0.0 | 0.0 | 0.00 | 0.00 | 0.00 | 89 | 1019.0 |
| 20260902025506 | 15 | 0 | 0.0 | 0.0 | 0.00 | 0.00 | 0.00 | 89 | 1018.9 |
| 20260902025006 | 15 | 0 | 0.0 | 0.0 | 0.00 | 0.00 | 0.00 | 88 | 1019.0 |
| 20260902024506 | 15 | 0 | 0.0 | 0.0 | 0.00 | 0.00 | 0.00 | 88 | 1019.0 |
| 20260902024006 | 15 | 0 | 0.0 | 0.0 | 0.00 | 0.00 | 0.00 | 88 | 1019.0 |
| 20260902023505 | 15 | 0 | 0.0 | 0.0 | 0.00 | 0.00 | 0.00 | 88 | 1018.9 |
| 20260902022507 | 15 | 0 | 0.0 | 0.0 | 0.00 | 0.00 | 0.00 | 89 | 1019.0 |
| 20260902022007 | 15 | 0 | 0.0 | 0.0 | 0.00 | 0.00 | 0.00 | 89 | 1019.0 |
| 20260902021506 | 15 | 0 | 0.0 | 0.0 | 0.00 | 0.00 | 0.00 | 89 | 1019.1 |
| 20260902020506 | 15 | 0 | 0.0 | 0.0 | 0.00 | 0.00 | 0.00 | 89 | 1019.1 |
| 20260902020006 | 15 | 0 | 0.0 | 0.0 | 0.00 | 0.00 | 0.00 | 89 | 1019.2 |
| 20260902015506 | 15 | 0 | 0.0 | 0.0 | 0.00 | 0.00 | 0.00 | 89 | 1019.2 |
| 20260902015005 | 15 | 0 | 0.0 | 0.0 | 0.00 | 0.00 | 0.00 | 89 | 1019.2 |
| 20260902014505 | 15 | 0 | 0.0 | 0.0 | 0.00 | 0.00 | 0.00 | 89 | 1019.2 |
| 20260902014006 | 15 | 0 | 0.0 | 0.0 | 0.00 | 0.00 | 0.00 | 89 | 1019.2 |
| 20260902013506 | 15 | 0 | 0.0 | 0.0 | 0.00 | 0.00 | 0.00 | 89 | 1019.2 |
| 20260902013005 | 15 | 0 | 0.0 | 0.0 | 0.00 | 0.00 | 0.00 | 89 | 1019.2 |
| 20260902012506 | 15 | 0 | 0.0 | 0.0 | 0.00 | 0.00 | 0.00 | 89 | 1019.2 |
| 20260902011505 | 15 | 0 | 0.0 | 0.0 | 0.00 | 0.00 | 0.00 | 89 | 1019.2 |
| 20260902011006 | 15 | 0 | 0.0 | 0.0 | 0.00 | 0.00 | 0.00 | 89 | 1019.3 |
| 20260902010006 | 15 | 0 | 0.0 | 0.0 | 0.00 | 0.00 | 0.00 | 89 | 1019.3 |
| 20260902005505 | 15 | 0 | 0.0 | 0.0 | 0.00 | 0.00 | 0.00 | 89 | 1019.3 |
| 20260902005006 | 14 | 0 | 0.0 | 0.0 | 0.00 | 0.00 | 0.00 | 89 | 1019.3 |
| 20260902004505 | 14 | 0 | 0.0 | 0.0 | 0.00 | 0.00 | 0.00 | 90 | 1019.4 |
| 20260902004005 | 14 | 0 | 0.0 | 0.0 | 0.00 | 0.00 | 0.00 | 90 | 1019.4 |
| 20260902003506 | 14 | 0 | 0.0 | 0.0 | 0.00 | 0.00 | 0.00 | 90 | 1019.5 |
| 20260902003006 | 14 | 0 | 0.0 | 0.0 | 0.00 | 0.00 | 0.00 | 90 | 1019.4 |
| 20260902002506 | 14 | 0 | 0.0 | 0.0 | 0.00 | 0.00 | 0.00 | 90 | 1019.4 |
| 20260902002006 | 14 | 0 | 0.0 | 0.0 | 0.00 | 0.00 | 0.00 | 90 | 1019.5 |
| 20260902001505 | 13 | 0 | 0.0 | 0.0 | 0.00 | 0.00 | 0.00 | 90 | 1019.5 |
| 20260902000506 | 13 | 0 | 0.0 | 0.0 | 0.00 | 0.00 | 0.00 | 90 | 1019.5 |
| 20260902000005 | 13 | 0 | 0.0 | 0.0 | 0.00 | 0.00 | 0.00 | 90 | 1019.5 |
| 20260901235507 | 13 | 0 | 0.0 | 0.0 | 0.00 | 0.00 | 0.00 | 91 | 1019.5 |
| 20260901235006 | 13 | 0 | 0.0 | 0.0 | 0.00 | 0.00 | 0.00 | 90 | 1019.5 |
| 20260901234007 | 13 | 0 | 0.0 | 0.0 | 0.00 | 0.00 | 0.00 | 90 | 1019.6 |
| 20260901233505 | 13 | 0 | 0.0 | 0.0 | 0.00 | 0.00 | 0.00 | 90 | 1019.6 |
| 20260901233006 | 13 | 0 | 0.0 | 0.0 | 0.00 | 0.00 | 0.00 | 90 | 1019.6 |
| 20260901232506 | 13 | 0 | 0.0 | 0.0 | 0.00 | 0.00 | 0.00 | 90 | 1019.6 |
| 20260901232005 | 13 | 0 | 0.0 | 0.0 | 0.00 | 0.00 | 0.00 | 91 | 1019.6 |
| 20260901231505 | 13 | 0 | 0.0 | 0.0 | 0.00 | 0.00 | 0.00 | 91 | 1019.8 |
| 20260901231005 | 13 | 0 | 0.0 | 0.0 | 0.00 | 0.00 | 0.00 | 91 | 1019.9 |
| 20260901230506 | 13 | 0 | 0.0 | 0.0 | 0.00 | 0.00 | 0.00 | 91 | 1019.8 |
| 20260901230006 | 13 | 0 | 0.0 | 0.0 | 0.00 | 0.00 | 0.00 | 90 | 1020.0 |
| 20260901225506 | 13 | 0 | 0.0 | 0.0 | 0.00 | 0.00 | 0.00 | 90 | 1019.9 |
| 20260901225006 | 13 | 0 | 0.0 | 0.0 | 0.00 | 0.00 | 0.00 | 89 | 1020.0 |
| 20260901224505 | 13 | 0 | 0.0 | 0.0 | 0.00 | 0.00 | 0.00 | 90 | 1020.0 |
| 20260901224005 | 14 | 0 | 0.0 | 0.0 | 0.00 | 0.00 | 0.00 | 89 | 1020.0 |
| 20260901223505 | 14 | 0 | 0.0 | 0.0 | 0.00 | 0.00 | 0.00 | 89 | 1019.9 |
| 20260901222006 | 14 | 0 | 0.0 | 0.0 | 0.00 | 0.05 | 0.00 | 88 | 1019.9 |
| 20260901221006 | 15 | 0 | 0.0 | 0.0 | 0.00 | 0.05 | 0.00 | 87 | 1019.9 |
| 20260901220506 | 15 | 0 | 0.0 | 0.0 | 0.00 | 0.05 | 0.00 | 88 | 1019.9 |
| 20260901220006 | 14 | 0 | 0.0 | 0.0 | 0.00 | 0.05 | 0.00 | 88 | 1019.8 |
| 20260901215506 | 15 | 0 | 0.0 | 0.0 | 0.00 | 0.05 | 0.05 | 88 | 1019.8 |
| 20260901215006 | 15 | 0 | 0.0 | 0.0 | 0.00 | 0.05 | 0.05 | 87 | 1019.9 |
| 20260901214506 | 15 | 0 | 0.0 | 0.0 | 0.00 | 0.05 | 0.05 | 87 | 1019.9 |
| 20260901214006 | 15 | 0 | 0.0 | 0.0 | 0.00 | 0.05 | 0.05 | 87 | 1019.9 |
| 20260901213005 | 15 | 0 | 0.0 | 0.0 | 0.00 | 0.05 | 0.05 | 86 | 1019.7 |
| 20260901212506 | 15 | 0 | 0.0 | 0.0 | 0.00 | 0.05 | 0.05 | 85 | 1019.6 |
| 20260901212006 | 15 | 0 | 0.0 | 0.0 | 0.00 | 0.05 | 0.05 | 85 | 1020.0 |
| 20260901211506 | 15 | 0 | 0.0 | 0.0 | 0.00 | 0.05 | 0.05 | 85 | 1020.1 |
| 20260901211006 | 15 | 0 | 0.0 | 0.0 | 0.00 | 0.05 | 0.05 | 85 | 1020.2 |
| 20260901210505 | 15 | 0 | 0.0 | 0.0 | 0.00 | 0.05 | 0.05 | 85 | 1020.3 |
| 20260901210006 | 15 | 0 | 0.0 | 0.0 | 0.00 | 0.05 | 0.05 | 84 | 1020.3 |
| 20260901205005 | 15 | 0 | 0.0 | 0.0 | 0.00 | 0.05 | 0.05 | 84 | 1020.4 |
| 20260901204506 | 15 | 0 | 0.0 | 0.0 | 0.00 | 0.05 | 0.05 | 84 | 1020.4 |
| 20260901204006 | 15 | 0 | 0.0 | 0.0 | 0.00 | 0.05 | 0.05 | 84 | 1020.3 |
| 20260901203505 | 15 | 0 | 0.0 | 0.0 | 0.00 | 0.05 | 0.05 | 84 | 1020.3 |
| 20260901203006 | 15 | 0 | 0.0 | 0.0 | 0.00 | 0.05 | 0.05 | 84 | 1020.3 |
| 20260901202005 | 15 | 0 | 0.0 | 0.0 | 0.00 | 0.05 | 0.05 | 83 | 1020.3 |
| 20260901201006 | 15 | 0 | 0.0 | 0.0 | 0.00 | 0.05 | 0.05 | 83 | 1020.2 |
| 20260901200507 | 15 | 0 | 0.0 | 0.0 | 0.00 | 0.05 | 0.05 | 82 | 1020.2 |
| 20260901200005 | 15 | 0 | 0.0 | 0.0 | 0.00 | 0.05 | 0.05 | 82 | 1020.2 |
| 20260901195506 | 15 | 0 | 0.0 | 0.0 | 0.00 | 0.05 | 0.05 | 81 | 1020.2 |
| 20260901195006 | 15 | 0 | 0.0 | 0.0 | 0.00 | 0.05 | 0.05 | 81 | 1020.2 |
| 20260901194505 | 15 | 0 | 0.0 | 0.0 | 0.00 | 0.05 | 0.05 | 80 | 1020.3 |
| 20260901193506 | 15 | 0 | 0.0 | 0.0 | 0.00 | 0.05 | 0.05 | 80 | 1020.0 |
| 20260901193006 | 16 | 0 | 0.0 | 0.0 | 0.00 | 0.05 | 0.05 | 79 | 1020.0 |
| 20260901192007 | 16 | 0 | 0.0 | 0.0 | 0.00 | 0.05 | 0.05 | 78 | 1019.9 |
| 20260901191506 | 16 | 0 | 0.0 | 0.0 | 0.00 | 0.05 | 0.05 | 76 | 1019.9 |
| 20260901191006 | 16 | 0 | 0.0 | 0.0 | 0.00 | 0.05 | 0.05 | 76 | 1019.9 |
| 20260901190505 | 16 | 0 | 0.0 | 0.0 | 0.00 | 0.05 | 0.05 | 76 | 1020.0 |
| 20260901190005 | 16 | 0 | 0.0 | 0.0 | 0.00 | 0.05 | 0.05 | 76 | 1019.9 |
| 20260901185505 | 16 | 0 | 0.0 | 0.0 | 0.00 | 0.05 | 0.05 | 76 | 1019.9 |
| 20260901185005 | 16 | 0 | 0.0 | 0.0 | 0.00 | 0.05 | 0.05 | 76 | 1019.9 |
| 20260901184506 | 16 | 0 | 0.0 | 0.0 | 0.00 | 0.05 | 0.05 | 75 | 1019.9 |
| 20260901184006 | 16 | 0 | 0.0 | 0.0 | 0.00 | 0.05 | 0.05 | 75 | 1020.0 |
| 20260901183506 | 17 | 0 | 0.0 | 0.0 | 0.00 | 0.05 | 0.05 | 75 | 1019.9 |
| 20260901183006 | 17 | 0 | 0.0 | 0.0 | 0.00 | 0.05 | 0.05 | 75 | 1019.8 |
| 20260901182006 | 17 | 0 | 0.0 | 0.0 | 0.00 | 0.05 | 0.05 | 75 | 1019.7 |